User: anonymous   Login
Location: Newark
(9.4667°S, 159.8167°E)
Time: 23:34:59
(UTC+00:00)
Language:

A-11 Canister half - Orbit

View from above orbital plane
View from above orbital plane
View from above satellite
View from above satellite

Ground track
Ground track

The orbit data is extracted from the following two-line orbital elements,

1    53U 60009E   19325.07519875 -.00000014  00000-0  69347-3 0  9993
2    53  47.2738 184.6697 0097430 181.6247 178.4236 12.17233594643061
Epoch (UTC): 21 November 2019 01:48:17
Eccentricity: 0.0097430
inclination: 47.2738°
perigee height: 1527 km
apogee height: 1682 km
right ascension of ascending node: 184.6697°
argument of perigee: 181.6247°
revolutions per day: 12.17233594
mean anomaly at epoch: 178.4236°
orbit number at epoch: 64306

The dashed part of the orbit path shows where the satellite is in the earth's shadow,  

DLR